Home > Weather > Peterborough > Past weeks

Flag for Canada Weather for the Past 2 Weeks in Peterborough, Ontario, Canada

Now
37 °F

Overcast.


Feels Like: 37 °F
Forecast: 33 / 55 °F
Wind: 2 mph from North

Location: Peterborough Airport

Current Time: Apr 29, 2016 at 2:30:15 AM

Latest Report: Apr 29, 2016 at 1:00 AM


Visibility: 9 mi

Pressure: 30.11 "Hg

Humidity: 81%

Dew Point: 32 °F

Location of PeterboroughLocation

Historic Weather in Peterborough — Graph

°F

Peterborough Temperature Yesterday

Maximum temperature yesterday: 48 °F (at 12:00 PM)
Minimum temperature yesterday: 28 °F (at 5:00 AM)
Average temperature yesterday: 40 °F

High & Low Weather Summary for the Past Weeks

 TemperatureHumidityPressure
High73 °F (Apr 17, 3:00 PM)100% (Apr 14, 1:00 AM)30.50 "Hg (Apr 14, 1:00 AM)
Low21 °F (Apr 14, 6:00 AM)20% (Apr 16, 5:00 PM)29.78 "Hg (Apr 22, 6:00 AM)
Average45 °F63%30.17 "Hg
* Reported Midnight between Apr 13 and Apr 14 — Midnight between Apr 28 and Apr 29, Peterborough, Weather by CustomWeather, © 2016

Note: Actual official high and low records may vary slightly from our data, if they occured in-between our weather recording intervals... More about our weather records

Advertising

Peterborough Weather History for the Previous 24 Hours

Scroll right to see more
 ConditionsComfort  
Time TempWeatherWind HumidityBarometerVisibility
12:00 AM
Fri, Apr 29
39 °FOvercast.2 mph75%30.10 "Hg9 mi
11:00 PM
Thu, Apr 28
39 °FPassing clouds.No wind81%30.11 "Hg9 mi
10:00 PM39 °FPassing clouds.No wind81%30.11 "Hg9 mi
9:00 PM39 °FPartly sunny.No wind75%30.10 "Hg9 mi
8:00 PM43 °FOvercast.2 mph66%30.09 "Hg9 mi
7:00 PM45 °FOvercast.2 mph57%30.09 "Hg9 mi
6:00 PM45 °FOvercast.3 mph57%30.08 "Hg9 mi
5:00 PM46 °FOvercast.8 mph53%30.06 "Hg9 mi
4:00 PM48 °FOvercast.8 mph46%30.06 "Hg9 mi
3:00 PM46 °FOvercast.10 mph50%30.07 "Hg9 mi
2:00 PM48 °FPartly sunny.12 mph46%30.08 "Hg9 mi
1:00 PM48 °FScattered clouds.3 mph40%30.09 "Hg9 mi
12:00 PM48 °FSunny.6 mph37%30.11 "Hg9 mi
11:00 AM46 °FSunny.6 mph43%30.12 "Hg9 mi
10:00 AM43 °FSunny.7 mph49%30.13 "Hg9 mi
9:00 AM39 °FSunny.8 mph56%30.14 "Hg9 mi
8:00 AM37 °FSunny.8 mph60%30.13 "Hg9 mi
7:00 AM32 °FClear.No wind80%30.12 "Hg9 mi
6:00 AM28 °FClear.2 mph86%30.10 "Hg9 mi
5:00 AM28 °FClear.No wind93%30.07 "Hg9 mi
4:00 AM34 °FClear.3 mph65%30.05 "Hg9 mi
3:00 AM34 °FClear.5 mph65%30.04 "Hg9 mi
Weather by CustomWeather, © 2016

See weather overviewHow to use our weather pages